[keps] orb07158.amsat

Ray Hoad r.hoad at att.net
Thu Jun 7 20:12:13 PDT 2007


SB KEPS @ AMSAT  $ORB07158.O
Orbital Elements  07158.OSCAR

HR AMSAT ORBITAL ELEMENTS FOR OSCAR SATELLITES
FROM WA5QGD FORT WORTH,TX June 7, 2007
Send SUBSCRIBE KEPS/UNSUBSCRIBE KEPS to majordomo at amsat.org only
BID: ORB07158.O
TO ALL RADIO AMATEURS BT

Satellite: AO-07
Catalog number: 07530
Epoch time:      07157.76663597
Element set:    0895
Inclination:      101.5140 deg
RA of node:       196.0812 deg
Eccentricity:    0.0011675
Arg of perigee:   276.6313 deg
Mean anomaly:     083.3430 deg
Mean motion:   12.53572511 rev/day
Decay rate:       -2.8e-07 rev/day^2
Epoch rev:           48981
Checksum:              305

Satellite: AO-10
Catalog number: 14129
Epoch time:      07157.37119196
Element set:     385
Inclination:      026.4906 deg
RA of node:       273.3373 deg
Eccentricity:    0.6062774
Arg of perigee:   028.2830 deg
Mean anomaly:     354.2115 deg
Mean motion:   02.05868474 rev/day
Decay rate:        8.1e-07 rev/day^2
Epoch rev:           18034
Checksum:              302

Satellite: UO-11
Catalog number: 14781
Epoch time:      07157.64057047
Element set:    0391
Inclination:      098.1888 deg
RA of node:       180.1394 deg
Eccentricity:    0.0008583
Arg of perigee:   198.6996 deg
Mean anomaly:     161.3902 deg
Mean motion:   14.79557604 rev/day
Decay rate:       3.01e-06 rev/day^2
Epoch rev:           24817
Checksum:              335

Satellite: RS-15
Catalog number: 23439
Epoch time:      07159.02490033
Element set:      36
Inclination:      064.8197 deg
RA of node:       021.7380 deg
Eccentricity:    0.0159490
Arg of perigee:   192.3968 deg
Mean anomaly:     167.3010 deg
Mean motion:   11.27551629 rev/day
Decay rate:       -3.9e-07 rev/day^2
Epoch rev:           51266
Checksum:              302

Satellite: FO-29
Catalog number: 24278
Epoch time:      07158.96043187
Element set:     519
Inclination:      098.5516 deg
RA of node:       119.8472 deg
Eccentricity:    0.0351314
Arg of perigee:   107.1417 deg
Mean anomaly:     256.8501 deg
Mean motion:   13.52930630 rev/day
Decay rate:        3.4e-07 rev/day^2
Epoch rev:           53365
Checksum:              311

Satellite: SO-33
Catalog number: 25509
Epoch time:      07157.77933150
Element set:    0947
Inclination:      031.4348 deg
RA of node:       284.5927 deg
Eccentricity:    0.0354826
Arg of perigee:   336.2651 deg
Mean anomaly:     022.1958 deg
Mean motion:   14.28167098 rev/day
Decay rate:      -2.05e-06 rev/day^2
Epoch rev:           44976
Checksum:              337

Satellite: AO-40
Catalog number: 26609
Epoch time:      07157.19066388
Element set:     886
Inclination:      005.5164 deg
RA of node:       141.9709 deg
Eccentricity:    0.7986288
Arg of perigee:   325.3603 deg
Mean anomaly:     002.2128 deg
Mean motion:   01.25588014 rev/day
Decay rate:      -1.32e-06 rev/day^2
Epoch rev:            3030
Checksum:              304

Satellite: VO-52
Catalog number: 28650
Epoch time:      07157.84171694
Element set:    0646
Inclination:      097.8321 deg
RA of node:       228.7905 deg
Eccentricity:    0.0026055
Arg of perigee:   288.1140 deg
Mean anomaly:     071.7238 deg
Mean motion:   14.81323286 rev/day
Decay rate:       5.55e-06 rev/day^2
Epoch rev:           11288
Checksum:              320

Satellite: PO-63
Catalog number: 29712
Epoch time:      07158.98077783
Element set:     432
Inclination:      097.9214 deg
RA of node:       218.2677 deg
Eccentricity:    0.0014833
Arg of perigee:   153.8092 deg
Mean anomaly:     206.3868 deg
Mean motion:   14.79714061 rev/day
Decay rate:       6.73e-06 rev/day^2
Epoch rev:            2197
Checksum:              339

/EX
SB KEPS @ AMSAT  $ORB07158.D
Orbital Elements  07158.MICROS

HR AMSAT ORBITAL ELEMENTS FOR THE MICROSATS
FROM WA5QGD FORT WORTH,TX June 7, 2007
Send SUBSCRIBE KEPS/UNSUBSCRIBE KEPS to majordomo at amsat.org only
BID: ORB07158.D
TO ALL RADIO AMATEURS BT

Satellite: AO-16
Catalog number: 20439
Epoch time:      07158.51643828
Element set:      52
Inclination:      098.1946 deg
RA of node:       153.6057 deg
Eccentricity:    0.0010003
Arg of perigee:   213.3366 deg
Mean anomaly:     146.7200 deg
Mean motion:   14.31761707 rev/day
Decay rate:        7.0e-08 rev/day^2
Epoch rev:           90716
Checksum:              281

Satellite: LO-19
Catalog number: 20442
Epoch time:      07158.55651749
Element set:     979
Inclination:      098.1788 deg
RA of node:       163.0085 deg
Eccentricity:    0.0011067
Arg of perigee:   211.3852 deg
Mean anomaly:     148.6673 deg
Mean motion:   14.32002023 rev/day
Decay rate:       -2.9e-07 rev/day^2
Epoch rev:           90731
Checksum:              306

Satellite: AO-27
Catalog number: 22825
Epoch time:      07158.81687681
Element set:     702
Inclination:      098.3298 deg
RA of node:       129.1065 deg
Eccentricity:    0.0007782
Arg of perigee:   295.8086 deg
Mean anomaly:     064.2312 deg
Mean motion:   14.29209506 rev/day
Decay rate:       -9.2e-07 rev/day^2
Epoch rev:           71415
Checksum:              325

Satellite: IO-26
Catalog number: 22826
Epoch time:      07157.46587300
Element set:    0399
Inclination:      098.3232 deg
RA of node:       128.8908 deg
Eccentricity:    0.0008268
Arg of perigee:   297.0386 deg
Mean anomaly:     062.9946 deg
Mean motion:   14.29456163 rev/day
Decay rate:        2.0e-08 rev/day^2
Epoch rev:           71404
Checksum:              331

Satellite: PO-28
Catalog number: 22829
Epoch time:      07157.84689390
Element set:    0677
Inclination:      098.3119 deg
RA of node:       130.4229 deg
Eccentricity:    0.0008765
Arg of perigee:   265.2777 deg
Mean anomaly:     094.7406 deg
Mean motion:   14.30156464 rev/day
Decay rate:        5.0e-07 rev/day^2
Epoch rev:           71433
Checksum:              332

Satellite: GO-32
Catalog number: 25397
Epoch time:      07159.02011992
Element set:     319
Inclination:      098.4140 deg
RA of node:       206.6348 deg
Eccentricity:    0.0000503
Arg of perigee:   209.7265 deg
Mean anomaly:     150.3879 deg
Mean motion:   14.23126853 rev/day
Decay rate:        8.8e-07 rev/day^2
Epoch rev:           46285
Checksum:              304

Satellite: MO-46
Catalog number: 26548
Epoch time:      07157.66528889
Element set:     813
Inclination:      064.5554 deg
RA of node:       215.2152 deg
Eccentricity:    0.0016810
Arg of perigee:   198.2312 deg
Mean anomaly:     161.8207 deg
Mean motion:   14.83146409 rev/day
Decay rate:        6.2e-07 rev/day^2
Epoch rev:           36197
Checksum:              318

Satellite: NO-44
Catalog number: 26931
Epoch time:      07157.52350113
Element set:    0606
Inclination:      067.0505 deg
RA of node:       174.9585 deg
Eccentricity:    0.0007594
Arg of perigee:   266.4315 deg
Mean anomaly:     093.5913 deg
Mean motion:   14.29485509 rev/day
Decay rate:      -2.34e-06 rev/day^2
Epoch rev:           29657
Checksum:              321

Satellite: SO-50
Catalog number: 27607
Epoch time:      07157.85946915
Element set:    0330
Inclination:      064.5577 deg
RA of node:       116.3907 deg
Eccentricity:    0.0052814
Arg of perigee:   002.8516 deg
Mean anomaly:     357.2871 deg
Mean motion:   14.71263045 rev/day
Decay rate:        1.8e-07 rev/day^2
Epoch rev:           23960
Checksum:              309

Satellite: CO-55
Catalog number: 27844
Epoch time:      07157.60931911
Element set:      44
Inclination:      098.7184 deg
RA of node:       166.0563 deg
Eccentricity:    0.0010893
Arg of perigee:   118.6643 deg
Mean anomaly:     241.5626 deg
Mean motion:   14.20514916 rev/day
Decay rate:        5.9e-07 rev/day^2
Epoch rev:           20397
Checksum:              312

Satellite: CO-57
Catalog number: 27848
Epoch time:      07158.54433354
Element set:       5
Inclination:      098.7170 deg
RA of node:       166.1769 deg
Eccentricity:    0.0010412
Arg of perigee:   118.3347 deg
Mean anomaly:     241.8896 deg
Mean motion:   14.20333457 rev/day
Decay rate:        2.7e-07 rev/day^2
Epoch rev:           20408
Checksum:              305

Satellite: AO-51
Catalog number: 28375
Epoch time:      07158.70514332
Element set:     832
Inclination:      098.1126 deg
RA of node:       198.5120 deg
Eccentricity:    0.0082982
Arg of perigee:   211.0671 deg
Mean anomaly:     148.5600 deg
Mean motion:   14.40569942 rev/day
Decay rate:        3.3e-07 rev/day^2
Epoch rev:           15434
Checksum:              292

Satellite: CO-56
Catalog number: 28941
Epoch time:      07158.90097286
Element set:     464
Inclination:      098.1290 deg
RA of node:       218.9621 deg
Eccentricity:    0.0224796
Arg of perigee:   306.1358 deg
Mean anomaly:     051.9250 deg
Mean motion:   15.39744303 rev/day
Decay rate:      9.353e-05 rev/day^2
Epoch rev:            7200
Checksum:              324

Satellite: HO-59
Catalog number: 29484
Epoch time:      07158.68817615
Element set:     390
Inclination:      098.2831 deg
RA of node:       207.0197 deg
Eccentricity:    0.0207478
Arg of perigee:   300.1754 deg
Mean anomaly:     057.9073 deg
Mean motion:   15.50894284 rev/day
Decay rate:     2.0371e-04 rev/day^2
Epoch rev:            3960
Checksum:              337

Satellite: NO-60
Catalog number: 29661
Epoch time:      07150.05824307
Element set:     300
Inclination:      051.6186 deg
RA of node:       176.5045 deg
Eccentricity:    0.0007204
Arg of perigee:   190.7749 deg
Mean anomaly:     188.7342 deg
Mean motion:   16.52052832 rev/day
Decay rate:  1.3324117e-01 rev/day^2
Epoch rev:            2554
Checksum:              290

Satellite: NO-61
Catalog number: 29664
Epoch time:      07158.44186841
Element set:     191
Inclination:      051.6311 deg
RA of node:       143.7681 deg
Eccentricity:    0.0011919
Arg of perigee:   316.2020 deg
Mean anomaly:     043.8047 deg
Mean motion:   15.91003443 rev/day
Decay rate:     2.6405e-04 rev/day^2
Epoch rev:            2660
Checksum:              279

